Probability
0 0 0 0 0 0 0 0 0 0 6 10 10 16 16 16 26 35 45 52 68 74 74 71 71 74 74 71 68 68 68 68 65 65 61 61 61 61 55 55 55 52 52 48
0 0 0 0 0 0 0 0 0 0 3 6 10 10 16 16 26 39 55 55 71 77 74 68 65 61 68 68 65 68 68 65 65 61 65 61 61 58 55 55 52 52 52 52
0 0 0 0 0 0 0 0 0 0 3 6 6 13 29 23 23 35 65 65 71 77 71 74 68 65 65 61 65 68 68 58 58 65 65 65 65 55 55 55 52 48 48 48
0 0 0 0 0 0 0 0 0 3 3 3 6 13 19 19 35 42 45 58 61 65 61 58 61 58 61 52 58 61 65 55 55 58 61 61 61 58 58 55 52 55 48 48
0 0 0 0 0 0 0 0 0 0 3 3 3 10 23 29 32 42 48 55 58 55 58 58 58 52 55 48 52 52 45 48 45 55 58 61 61 61 52 55 55 55 48 48
0 0 0 0 0 0 0 0 0 0 3 3 0 6 23 29 32 39 39 42 42 42 45 52 55 48 48 48 48 48 45 48 48 48 52 58 55 55 55 55 55 48 45 48
0 0 0 0 0 0 0 3 6 0 3 3 19 13 29 29 35 42 48 48 48 55 58 58 58 55 52 45 45 48 48 48 52 58 61 58 58 58 52 55 52 42 42 45
0 0 0 0 0 6 42 32 19 13 13 16 23 26 26 26 39 42 42 42 48 58 58 58 58 61 68 61 52 52 48 48 55 58 45 32 52 52 48 48 48 39 45 48
3 0 23 19 26 26 26 23 16 13 16 19 19 19 16 23 32 39 48 45 48 52 58 65 65 65 61 68 65 58 58 58 61 58 45 42 42 35 45 48 32 29 32 29
13 10 13 13 13 13 13 10 10 10 16 16 23 19 23 32 42 42 32 35 48 48 55 58 65 55 68 68 74 68 61 61 61 61 52 52 52 39 32 32 26 23 23 26
13 10 6 3 6 6 6 6 10 10 10 13 13 23 29 35 35 32 32 35 39 48 48 52 61 65 55 68 68 68 65 55 52 42 35 42 39 32 29 32 26 26 26 19
6 19 13 10 10 6 10 10 10 13 19 19 19 29 32 35 35 35 35 39 42 45 45 45 52 58 65 65 65 65 52 48 35 32 39 32 32 23 16 6 6 10 13 13
16 13 13 16 13 6 10 13 13 16 16 19 19 23 29 35 32 32 32 35 35 39 45 48 45 55 55 55 61 58 45 45 39 32 29 32 26 26 23 10 0 0 0 0
13 13 16 16 13 10 13 10 10 10 10 10 10 13 26 23 32 32 32 32 32 35 42 45 39 48 55 55 52 52 42 35 39 32 29 29 32 29 29 23 13 10 0 0
10 10 13 13 6 6 6 10 10 10 10 10 10 13 16 23 26 26 29 26 29 39 39 42 45 42 48 42 39 45 35 35 35 29 32 29 29 26 23 23 16 16 13 0
6 10 6 3 3 3 6 13 13 6 6 16 13 19 19 16 23 23 23 29 32 29 45 45 52 48 48 45 42 39 35 29 32 29 29 29 23 23 26 23 16 13 13 16
6 6 3 6 10 10 10 10 10 10 10 13 13 19 19 16 19 26 26 29 39 39 39 45 52 55 48 45 35 32 32 29 26 29 29 23 19 23 26 23 19 16 16 13
6 6 6 10 10 10 10 10 10 10 10 13 10 13 13 16 19 26 29 29 32 39 32 35 39 42 42 48 45 32 29 29 29 29 29 26 23 19 23 19 19 19 16 0
6 6 6 6 10 10 10 10 6 6 10 16 16 19 19 16 23 23 23 26 29 29 35 29 23 26 32 39 26 35 29 29 29 26 26 19 16 16 19 16 16 16 10 3
3 3 3 3 3 6 6 6 6 6 6 10 16 13 19 19 19 19 26 26 26 26 32 29 23 26 29 26 13 19 19 19 19 16 16 13 13 13 16 16 16 16 10 10
3 3 3 3 3 6 6 10 6 10 10 10 19 16 19 19 19 23 26 16 29 32 26 16 23 23 19 13 13 13 16 16 16 16 16 16 16 16 10 10 6 6 3 3
6 3 3 3 6 6 13 13 10 10 10 13 13 13 16 26 13 23 26 29 19 6 16 16 16 16 13 6 10 6 10 10 13 16 16 16 13 10 3 6 3 3 3 6
10 10 3 3 6 10 10 10 10 13 10 13 13 13 13 19 19 19 16 16 13 6 13 13 10 3 3 3 6 3 3 6 6 10 6 10 13 13 10 6 6 6 6 10
6 10 10 10 13 10 10 10 10 10 6 10 10 10 16 16 16 16 10 0 3 3 3 0 0 3 3 6 10 10 3 6 6 6 6 6 3 6 6 6 6 10 10 10
6 3 10 13 10 6 10 6 6 3 3 6 6 6 6 16 16 10 6 3 0 0 3 0 0 3 3 6 10 10 6 6 0 3 3 3 3 6 3 6 6 6 6 10
0 3 3 10 10 6 6 10 10 6 3 3 6 10 10 13 6 6 6 3 0 0 3 3 3 0 0 3 6 6 10 3 3 0 3 3 6 6 6 0 3 6 6 10
0 0 13 6 3 6 10 10 6 3 3 3 6 10 10 3 3 0 3 3 0 3 0 0 0 0 0 0 6 10 10 6 3 3 3 3 3 3 3 6 10 10 6 6
Height
5880 5884 5887 5890 5893 5896 5898 5900 5903 5905 5906 5905 5903 5903 5903 5904 5905 5905 5905 5906 5906 5906 5906 5905 5905 5904 5903 5903 5902 5901 5900 5899 5898 5897 5896 5894 5893 5891 5890 5888 5886 5884 5882 5879
5873 5876 5880 5883 5887 5890 5893 5895 5897 5899 5900 5899 5898 5897 5897 5898 5900 5900 5901 5901 5901 5902 5902 5902 5901 5901 5900 5899 5899 5898 5897 5896 5895 5894 5893 5891 5890 5888 5887 5885 5883 5881 5879 5877
5866 5871 5873 5875 5880 5883 5886 5889 5891 5893 5894 5893 5892 5892 5892 5893 5894 5895 5896 5896 5896 5897 5897 5897 5897 5897 5896 5895 5895 5894 5893 5892 5891 5890 5889 5888 5886 5884 5883 5881 5879 5878 5875 5873
5858 5863 5864 5871 5874 5876 5879 5882 5884 5885 5886 5886 5886 5886 5886 5887 5888 5889 5890 5891 5891 5892 5892 5892 5892 5891 5891 5890 5890 5889 5889 5888 5887 5886 5885 5883 5882 5880 5879 5877 5876 5874 5872 5870
5851 5854 5857 5863 5865 5868 5870 5872 5875 5877 5878 5878 5879 5879 5878 5879 5881 5882 5883 5885 5885 5885 5886 5887 5886 5886 5886 5885 5885 5884 5884 5883 5882 5881 5880 5878 5877 5875 5874 5872 5870 5868 5866 5864
5842 5846 5850 5856 5857 5859 5863 5863 5866 5868 5869 5870 5871 5871 5871 5872 5874 5875 5876 5877 5878 5878 5879 5879 5880 5880 5879 5879 5879 5879 5878 5877 5876 5875 5874 5873 5871 5870 5868 5866 5864 5862 5860 5859
5833 5837 5842 5846 5848 5851 5854 5855 5857 5858 5859 5861 5863 5863 5864 5865 5866 5867 5869 5869 5870 5871 5871 5872 5872 5872 5872 5872 5872 5872 5871 5870 5869 5869 5868 5866 5865 5863 5862 5860 5858 5856 5854 5852
5825 5829 5835 5837 5839 5841 5843 5845 5847 5849 5850 5851 5853 5854 5855 5857 5858 5859 5860 5861 5861 5862 5863 5864 5864 5864 5865 5865 5865 5864 5863 5863 5862 5861 5860 5859 5858 5856 5855 5853 5851 5849 5847 5845
5817 5821 5824 5826 5828 5830 5833 5836 5837 5839 5841 5841 5843 5845 5846 5848 5849 5850 5850 5851 5852 5853 5855 5855 5856 5856 5856 5856 5856 5855 5855 5854 5854 5853 5852 5851 5849 5848 5846 5845 5843 5841 5840 5838
5807 5809 5813 5816 5818 5821 5824 5826 5828 5830 5831 5833 5834 5835 5837 5838 5839 5840 5841 5842 5843 5844 5845 5846 5846 5847 5847 5847 5846 5846 5845 5845 5844 5844 5843 5842 5840 5839 5838 5836 5835 5833 5831 5830
5798 5801 5804 5807 5809 5812 5815 5817 5818 5820 5822 5823 5824 5825 5827 5828 5829 5830 5830 5831 5833 5834 5835 5835 5836 5836 5837 5837 5836 5836 5835 5835 5834 5833 5833 5832 5830 5829 5828 5827 5825 5824 5822 5821
5789 5791 5794 5797 5799 5802 5804 5806 5808 5810 5812 5813 5814 5815 5816 5817 5818 5818 5820 5820 5821 5822 5823 5824 5824 5825 5826 5826 5826 5825 5825 5825 5824 5823 5823 5821 5820 5820 5819 5817 5816 5814 5813 5811
5780 5782 5784 5787 5790 5792 5794 5796 5798 5800 5801 5802 5803 5804 5805 5807 5807 5808 5809 5809 5810 5811 5812 5813 5814 5814 5815 5815 5814 5814 5814 5814 5814 5813 5812 5811 5810 5809 5809 5808 5806 5804 5803 5801
5770 5773 5775 5778 5780 5782 5784 5786 5787 5789 5790 5792 5792 5794 5794 5796 5796 5797 5797 5798 5799 5799 5801 5802 5802 5803 5803 5803 5803 5803 5803 5803 5803 5802 5801 5801 5800 5799 5798 5797 5796 5794 5793 5791
5761 5764 5766 5768 5770 5772 5773 5775 5777 5778 5779 5780 5781 5782 5783 5784 5785 5785 5785 5786 5787 5788 5789 5790 5790 5791 5791 5791 5791 5792 5792 5791 5791 5791 5790 5790 5789 5788 5787 5786 5785 5784 5783 5781
5752 5755 5757 5758 5760 5761 5763 5764 5766 5767 5768 5768 5769 5770 5771 5772 5773 5773 5774 5775 5776 5777 5778 5778 5779 5780 5780 5780 5780 5780 5780 5780 5780 5780 5779 5779 5778 5777 5776 5775 5774 5773 5772 5770
5743 5745 5747 5748 5749 5751 5752 5753 5754 5755 5756 5756 5757 5758 5759 5760 5761 5762 5763 5764 5764 5765 5766 5766 5767 5767 5767 5767 5767 5767 5768 5768 5768 5768 5768 5768 5766 5765 5765 5764 5763 5762 5761 5759
5734 5735 5736 5737 5739 5739 5740 5741 5742 5742 5743 5744 5745 5746 5747 5749 5750 5751 5752 5752 5753 5753 5754 5754 5754 5755 5755 5755 5755 5756 5756 5757 5757 5757 5757 5757 5755 5755 5754 5754 5752 5751 5750 5748
5724 5725 5726 5727 5727 5728 5728 5729 5729 5730 5731 5733 5734 5735 5736 5737 5738 5739 5740 5740 5741 5742 5742 5742 5743 5743 5743 5743 5744 5744 5745 5746 5746 5745 5745 5745 5745 5744 5744 5743 5742 5741 5739 5738
5715 5715 5716 5716 5717 5717 5717 5718 5718 5718 5719 5721 5722 5724 5725 5726 5727 5728 5728 5729 5730 5730 5731 5731 5731 5731 5731 5732 5732 5733 5734 5734 5734 5734 5734 5734 5733 5733 5732 5732 5731 5730 5729 5727
5706 5706 5706 5706 5706 5706 5706 5707 5707 5707 5709 5710 5712 5713 5714 5715 5716 5717 5717 5719 5720 5719 5720 5720 5720 5720 5720 5721 5721 5722 5722 5723 5723 5723 5722 5722 5722 5722 5721 5720 5720 5719 5718 5717
5697 5697 5697 5697 5697 5697 5697 5697 5697 5698 5699 5700 5701 5703 5704 5705 5706 5706 5707 5708 5708 5709 5709 5709 5709 5710 5710 5710 5710 5711 5711 5711 5711 5711 5710 5710 5710 5710 5710 5709 5709 5708 5707 5707
5690 5689 5689 5689 5689 5688 5688 5688 5689 5690 5691 5692 5693 5694 5695 5695 5696 5697 5698 5698 5698 5699 5699 5699 5699 5700 5700 5700 5700 5700 5700 5700 5700 5700 5699 5699 5699 5699 5699 5699 5698 5697 5697 5696
5683 5682 5682 5682 5681 5681 5681 5681 5682 5683 5683 5684 5685 5686 5687 5687 5688 5688 5688 5688 5689 5689 5689 5689 5689 5689 5689 5689 5689 5689 5689 5689 5689 5689 5689 5689 5689 5689 5688 5688 5687 5687 5686 5686
5676 5676 5676 5676 5676 5676 5675 5676 5676 5676 5676 5677 5678 5678 5679 5679 5679 5680 5680 5680 5680 5679 5679 5679 5679 5679 5679 5679 5679 5679 5679 5679 5678 5678 5678 5678 5679 5679 5678 5678 5677 5677 5676 5676
5671 5671 5671 5671 5671 5671 5671 5671 5670 5670 5670 5671 5671 5671 5672 5672 5672 5672 5672 5672 5672 5671 5671 5670 5670 5670 5670 5670 5670 5669 5669 5668 5668 5668 5668 5668 5668 5668 5668 5668 5667 5667 5667 5666
5667 5667 5666 5666 5666 5666 5666 5666 5666 5666 5666 5666 5666 5666 5666 5666 5666 5666 5665 5665 5665 5664 5663 5662 5662 5662 5661 5661 5661 5661 5660 5660 5660 5659 5659 5659 5659 5659 5659 5659 5658 5658 5658 5657
Wind_Speed
28 26 25 24 24 23 23 23 22 19 21 23 22 21 22 21 20 19 17 17 17 16 17 16 16 16 16 16 15 16 16 16 15 15 15 15 15 14 15 15 16 16 16 16
30 28 27 28 26 25 25 25 23 22 23 24 25 23 21 22 21 21 21 20 20 19 19 19 18 17 17 17 17 17 17 16 16 16 16 16 16 16 17 17 17 17 17 17
32 30 30 30 27 25 25 26 25 24 25 24 25 25 26 26 25 24 23 23 23 22 21 21 20 19 18 18 18 18 18 17 17 18 18 18 18 18 19 19 19 19 19 18
34 31 33 30 27 27 27 27 27 26 27 29 29 28 30 29 27 26 26 25 26 25 23 23 22 21 21 20 20 20 20 19 19 19 20 20 20 21 21 21 21 21 21 21
34 33 32 30 29 29 30 30 29 29 29 30 30 30 29 29 29 28 28 28 28 27 26 25 24 24 23 22 22 22 22 22 22 22 22 22 22 23 23 23 23 23 23 23
35 34 32 30 30 30 30 32 31 30 31 31 31 32 32 31 31 30 30 30 29 29 28 27 27 26 26 25 25 24 24 25 25 24 25 25 25 25 25 25 25 25 25 25
36 35 33 30 30 30 32 33 32 33 33 34 34 35 35 32 33 33 32 32 31 31 30 29 29 29 28 28 27 27 28 28 28 27 27 28 28 28 28 28 28 28 27 27
36 35 33 32 31 33 34 34 34 34 34 35 35 36 35 34 34 35 34 34 33 32 32 31 32 32 31 30 30 30 30 30 30 30 30 30 30 30 30 30 30 29 29 30
34 36 36 35 35 36 36 36 35 35 36 35 34 35 36 36 35 36 36 35 35 34 34 33 33 33 33 32 32 33 33 33 32 32 32 33 33 32 32 32 32 31 31 31
35 36 38 38 38 38 37 37 37 37 36 36 36 36 37 36 36 36 38 38 37 36 36 35 34 35 35 34 34 35 35 34 34 34 35 35 35 34 34 34 34 34 33 33
37 38 38 38 38 37 38 38 38 38 38 37 37 37 38 38 38 38 39 39 39 38 37 37 37 36 36 35 36 36 36 36 36 36 36 36 36 35 36 36 36 36 35 36
37 36 38 38 39 40 39 38 38 38 38 38 38 39 39 39 38 39 40 40 40 40 39 38 38 38 38 37 37 37 37 37 37 37 37 37 37 36 37 36 36 36 37 37
38 38 38 39 40 39 39 39 39 38 38 38 39 39 39 38 38 38 38 39 39 39 40 39 39 39 38 37 37 37 37 37 37 37 37 37 37 37 37 37 36 36 36 36
37 37 38 38 39 39 40 40 40 40 40 40 40 39 39 39 39 39 39 39 40 40 40 40 39 39 39 39 38 38 38 38 38 38 38 37 37 38 38 37 37 36 36 36
38 38 38 38 38 39 39 39 40 40 41 41 41 41 40 39 39 39 39 39 40 40 40 39 39 39 39 39 39 39 38 39 38 38 38 38 38 38 38 37 37 37 36 37
37 38 38 38 39 40 40 40 40 41 40 41 41 42 41 40 40 40 39 39 39 39 40 40 40 40 40 40 39 39 39 39 38 37 37 37 37 38 37 37 37 37 37 37
36 36 37 37 38 39 40 41 41 41 42 41 40 41 41 41 41 40 40 40 40 40 41 41 41 41 41 40 39 39 39 38 38 38 37 37 37 36 36 37 37 37 37 37
35 36 37 38 39 39 39 40 41 41 41 40 39 40 40 40 40 41 41 41 40 41 40 41 41 40 39 39 39 38 38 38 38 38 37 38 37 37 36 36 36 37 37 37
34 36 36 37 37 37 38 38 39 40 40 39 39 39 39 40 39 39 39 39 39 39 39 38 38 38 38 38 38 38 38 38 38 38 38 39 39 39 37 37 37 37 37 38
31 32 33 34 34 35 36 37 37 37 38 38 38 38 37 37 37 37 37 36 36 37 37 37 36 37 37 37 38 38 38 37 37 38 38 39 39 39 38 38 38 37 37 37
29 29 30 30 31 32 33 33 34 34 35 35 35 36 36 36 36 36 36 36 36 36 36 36 35 35 35 36 36 37 37 37 37 38 38 38 38 38 38 38 37 36 36 35
27 27 28 28 28 29 29 30 31 31 31 32 32 33 34 34 34 34 34 35 34 35 35 35 35 34 34 35 35 36 37 37 37 38 38 39 38 38 37 37 36 35 36 36
25 26 26 27 27 26 27 27 27 27 28 28 29 30 30 30 30 31 32 32 33 33 33 33 34 34 34 34 35 36 36 37 37 37 37 36 36 36 35 35 35 35 34 34
22 22 22 23 23 23 23 23 24 24 25 26 26 26 27 28 28 29 30 30 31 31 32 32 32 32 32 33 33 33 34 34 34 34 34 34 34 34 34 34 34 33 33 33
19 20 21 21 20 20 20 20 21 22 23 24 24 24 25 26 27 28 28 28 29 30 30 30 30 31 32 31 30 31 30 30 31 32 32 33 33 34 33 33 32 32 32 32
18 18 19 19 19 18 18 18 19 20 21 21 22 22 22 23 24 25 26 27 27 27 27 28 28 29 29 28 28 28 28 29 29 30 30 31 31 31 32 32 31 31 31 29
16 16 16 17 17 17 17 17 17 18 18 19 19 18 19 20 20 21 21 21 22 22 24 24 25 25 25 26 26 27 28 28 29 29 30 30 30 30 30 29 29 29 28 27
Wind_Direction
229 224 226 234 238 239 238 237 239 242 249 260 266 264 268 268 265 265 266 269 271 276 281 284 287 290 294 295 295 297 300 300 302 306 310 311 313 316 318 318 318 318 319 321
233 232 231 232 235 240 243 242 240 242 246 252 261 261 264 266 266 266 268 269 270 274 278 281 285 288 289 290 291 292 295 296 298 300 303 307 311 313 315 313 313 314 313 315
232 234 238 237 236 236 240 243 241 245 249 250 255 257 261 266 267 266 267 267 272 274 276 277 280 284 285 286 286 288 291 292 294 296 299 303 307 310 311 309 309 310 309 309
236 235 239 240 240 239 239 242 242 241 246 249 252 257 258 260 263 264 265 265 267 271 273 274 276 279 280 282 283 284 286 288 290 293 295 297 301 304 305 305 306 306 305 303
236 239 243 242 241 240 239 240 241 244 246 249 252 256 258 259 262 264 266 267 267 269 270 270 272 275 277 278 280 281 282 286 287 289 291 293 296 299 301 302 303 303 303 301
236 236 240 243 245 244 244 245 244 246 248 249 250 255 257 259 263 265 266 266 266 267 268 267 269 272 274 276 278 279 281 282 284 286 288 291 293 295 298 298 299 300 300 300
236 237 239 241 243 244 243 244 246 248 249 251 252 253 256 260 263 266 266 267 267 266 266 267 268 270 273 275 277 279 279 281 283 285 287 289 290 292 294 295 296 297 297 298
237 236 237 240 243 244 245 248 248 248 251 253 254 256 257 258 260 263 265 266 266 265 265 266 267 269 272 274 276 277 279 281 282 283 284 286 288 290 292 293 293 294 294 296
238 237 237 237 240 243 246 247 250 251 253 254 255 258 259 259 259 261 262 264 265 264 263 265 266 268 270 272 274 276 278 279 279 280 282 283 284 286 288 290 290 291 290 292
235 237 238 241 243 245 247 248 250 252 254 255 257 258 259 261 261 262 263 264 264 264 263 264 266 268 270 271 273 275 277 278 278 279 280 282 282 283 285 287 288 288 289 289
238 240 241 242 246 247 249 251 252 254 255 256 258 260 261 263 263 263 262 262 262 262 263 264 265 267 269 270 272 274 275 277 277 278 279 281 280 282 283 284 285 286 287 288
240 243 243 243 246 248 248 250 252 255 256 257 258 260 262 263 265 264 263 264 263 261 262 265 267 267 268 270 272 273 274 275 277 278 279 280 279 281 283 284 284 286 287 288
245 246 246 247 248 250 251 252 254 255 257 258 260 261 262 263 265 266 265 265 263 263 263 265 267 268 269 270 271 272 273 274 276 277 278 279 280 281 282 283 284 285 286 287
247 248 248 250 252 253 254 255 257 257 259 260 260 261 262 264 265 265 265 265 264 264 264 265 266 268 269 270 271 272 273 274 275 277 277 278 280 280 281 282 283 284 286 286
247 249 250 253 254 255 256 258 259 260 261 262 262 262 263 264 264 264 265 265 265 264 263 264 266 268 269 269 270 271 272 273 274 276 277 277 278 279 280 281 283 284 285 286
249 251 253 254 256 257 258 259 259 260 261 263 263 262 263 263 264 265 266 265 264 263 263 265 266 267 268 269 269 270 270 271 273 274 275 276 277 278 280 282 283 285 286 286
251 253 255 257 258 259 260 260 260 261 261 261 262 263 263 263 263 264 265 265 264 264 264 265 266 266 267 268 269 269 269 270 272 273 274 276 276 277 280 282 284 286 286 287
254 256 258 259 261 262 261 261 261 261 260 261 261 262 263 263 263 264 265 266 266 264 265 267 267 267 267 267 268 268 268 270 271 272 273 274 276 279 281 283 284 285 285 286
256 258 260 261 262 263 262 262 262 261 261 261 261 262 264 264 264 265 265 265 265 264 265 267 267 267 266 266 266 267 268 269 271 272 273 274 277 279 280 282 283 284 284 285
259 261 262 262 263 264 264 263 263 262 260 261 261 262 262 262 263 265 265 265 265 266 266 266 266 266 266 266 265 266 267 269 271 272 273 274 276 277 278 280 281 282 283 284
262 263 264 265 265 265 265 264 264 264 263 262 261 262 262 262 263 265 264 264 265 265 265 265 266 266 267 267 265 266 268 270 271 271 272 273 274 276 277 279 280 280 281 282
264 265 267 266 266 267 266 264 264 265 265 263 262 262 263 263 263 264 264 265 265 265 265 265 265 265 267 267 268 268 269 271 272 272 272 272 274 277 278 278 277 278 279 281
268 269 269 269 268 268 266 266 265 265 264 264 262 262 263 264 263 263 264 265 266 266 266 267 266 266 267 267 268 269 270 271 272 272 271 272 275 276 276 276 277 278 280 280
270 269 269 271 271 270 269 266 265 264 264 264 263 261 262 263 264 266 267 268 268 269 269 269 268 268 268 268 269 269 270 270 271 272 272 273 273 274 276 278 278 279 280 280
271 269 269 270 270 271 270 267 265 265 264 260 258 261 263 264 266 268 270 271 271 271 271 271 270 270 269 268 268 269 270 271 272 271 271 271 272 274 277 278 279 279 279 278
271 269 269 271 271 270 269 269 267 266 265 264 265 266 266 267 269 271 272 272 272 272 272 273 272 271 269 269 269 271 273 273 273 273 274 274 274 276 277 277 277 278 278 277
272 270 269 271 270 268 268 270 271 269 270 269 271 271 271 272 273 273 274 275 275 277 277 276 275 274 272 272 274 274 275 276 276 275 275 276 276 275 275 275 276 277 277 278